Location: Venise Bay
(45.0825°N, 73.1481°W)
Time: 21:19:11
(UTC-05:00)

ISS - Pass Details

Date: 05 December 2021
Orbit: 413 x 422 km, 51.6° (Epoch: 24 January)

Event Time Altitude Azimuth Distance (km) Brightness Sun altitude
Rises 18:53:51 0° 290° (WNW) 2,380 1.1 -27.9°
Reaches altitude 10° 18:56:20 10° 272° (W) 1,508 0.0 -28.3°
Enters shadow 18:58:00 18° 245° (WSW) 1,118 -0.9 -28.6°
